Location: ???????
(55.4362°N, 38.1183°E)
Time: 03:52:15
(UTC+00:00)

Cosmos 1354 Rocket - Pass Details

Date: 17 June 2021
Orbit: 764 x 783 km, 74.0° (Epoch: 26 July)

Event Time Altitude Azimuth Distance (km) Brightness Sun altitude
Rises 20:05:57 0° 332° (NNW) 3,284 9.4 -9.2°
Reaches altitude 10° 20:08:21 10° 333° (NNW) 2,353 8.1 -9.3°
Maximum altitude 20:13:43 82° 61° (ENE) 799 4.1 -9.6°
Enters shadow 20:18:44 12° 150° (SSE) 2,214 5.8 -9.8°
